Weather History for Wisconsin Rapids, WI

Change the Weather History Date:

Saturday, February 23, 2013

  Actual Average Record
Temperature  
Mean Temperature 26 °F -  
Max Temperature 28 °F 33 °F 53 °F (1958)
Min Temperature 23 °F 15 °F -11 °F (1967)
Degree Days  
Heating Degree Days 40    
Moisture  
Dew Point 19 °F    
Average Humidity 76    
Maximum Humidity 88    
Minimum Humidity 64    
Precipitation  
Precipitation 0.00 in - - ()
Sea Level Pressure  
Sea Level Pressure 29.86 in    
Wind  
Wind Speed 7 mph (West)    
Max Wind Speed 12 mph    
Max Gust Speed -    
Visibility 8 miles    
Events Snow    
Averages and records for this station are not official NWS values.
T = Trace of Precipitation, MM = Missing Value Source: NWS Daily Summary

Daily Weather History Graph

Daily Weather History Graph

Search for Another Location

Airport:

Trip Planner

Search our weather history database for the weather conditions in past years. The results will help you decide how hot, cold, wet, or windy it might be!

Date:

Astronomy

Feb. 23, 2013 Rise Set
Actual Time 6:46 AM CST 5:39 PM CST
Civil Twilight 6:16 AM CST 6:09 PM CST
Nautical Twilight 5:43 AM CST 6:42 PM CST
Astronomical Twilight 5:09 AM CST 7:16 PM CST
Moon 3:47 PM CST (2/23) 5:11 AM CST (2/23)
Length of Visible Light 11h 52m
Length of Day
10h 53m
Waxing Gibbous, 95% of the Moon is Illuminated
Feb 23
Waxing Gibbous
Feb 25
Full
Mar 4
Last Quarter
Mar 11
New
Mar 19
First Quarter

Hourly Weather History & Observations

Time (CST) Temp. Windchill Dew Point Humidity Pressure Visibility Wind Dir Wind Speed Gust Speed Precip Events Conditions
12:54 AM 24.1 °F 17.0 °F 21.0 °F 88% 29.83 in 9.0 mi West 5.8 mph - N/A   Overcast
1:54 AM 24.1 °F 17.0 °F 21.0 °F 88% 29.83 in 8.0 mi West 5.8 mph - N/A   Overcast
2:54 AM 24.1 °F 16.0 °F 21.0 °F 88% 29.83 in 5.0 mi WSW 6.9 mph - 0.00 in Snow Light Snow
3:54 AM 24.1 °F 17.0 °F 21.0 °F 88% 29.83 in 6.0 mi West 5.8 mph - 0.00 in Snow Light Snow
4:54 AM 24.1 °F 16.0 °F 19.9 °F 84% 29.84 in 4.0 mi WSW 6.9 mph - 0.00 in Snow Light Snow
5:54 AM 23.0 °F 17.0 °F 19.9 °F 88% 29.84 in 6.0 mi West 4.6 mph - 0.00 in Snow Light Snow
6:54 AM 23.0 °F 14.7 °F 19.9 °F 88% 29.86 in 3.0 mi WSW 6.9 mph - 0.00 in Snow Light Snow
7:06 AM 23.0 °F 14.7 °F 19.4 °F 86% 29.81 in 2.5 mi West 6.9 mph - 0.00 in Snow Light Snow
7:17 AM 23.0 °F 13.9 °F 19.4 °F 86% 29.81 in 3.0 mi West 8.1 mph - 0.00 in Snow Light Snow
7:54 AM 23.0 °F 13.9 °F 19.9 °F 88% 29.86 in 4.0 mi West 8.1 mph - 0.00 in Snow Light Snow
8:54 AM 24.1 °F 16.0 °F 19.9 °F 84% 29.87 in 3.0 mi WSW 6.9 mph - 0.00 in Snow Light Snow
9:54 AM 24.1 °F 16.0 °F 19.0 °F 81% 29.87 in 7.0 mi West 6.9 mph - 0.00 in   Overcast
10:54 AM 25.0 °F 15.5 °F 19.9 °F 81% 29.87 in 9.0 mi West 9.2 mph - N/A   Overcast
11:54 AM 27.0 °F 16.7 °F 19.0 °F 72% 29.86 in 10.0 mi NW 11.5 mph - N/A   Mostly Cloudy
12:11 PM 26.6 °F 17.5 °F 17.6 °F 69% 29.82 in 10.0 mi WNW 9.2 mph - N/A   Scattered Clouds
12:30 PM 26.6 °F 17.5 °F 17.6 °F 69% 29.82 in 10.0 mi WNW 9.2 mph - N/A   Mostly Cloudy
12:42 PM 26.6 °F 16.2 °F 17.6 °F 69% 29.81 in 10.0 mi WNW 11.5 mph - N/A   Mostly Cloudy
12:54 PM 28.0 °F 20.8 °F 18.0 °F 66% 29.86 in 10.0 mi West 6.9 mph - N/A   Mostly Cloudy
1:32 PM 28.4 °F 21.2 °F 17.6 °F 64% 29.80 in 10.0 mi West 6.9 mph - N/A   Overcast
1:40 PM 28.4 °F 23.3 °F 19.4 °F 69% 29.80 in 10.0 mi West 4.6 mph - N/A   Overcast
1:54 PM 28.9 °F 20.4 °F 19.0 °F 67% 29.85 in 10.0 mi West 9.2 mph - N/A   Overcast
2:09 PM 28.4 °F 19.7 °F 17.6 °F 64% 29.80 in 10.0 mi WNW 9.2 mph - N/A   Overcast
2:34 PM 28.4 °F 22.2 °F 19.4 °F 69% 29.81 in 10.0 mi West 5.8 mph - N/A   Overcast
2:54 PM 28.9 °F 22.8 °F 19.0 °F 67% 29.86 in 10.0 mi West 5.8 mph - N/A   Overcast
3:13 PM 28.4 °F 20.4 °F 17.6 °F 64% 29.81 in 10.0 mi WNW 8.1 mph - N/A   Overcast
3:41 PM 28.4 °F 19.7 °F 19.4 °F 69% 29.81 in 10.0 mi NW 9.2 mph - N/A   Overcast
3:54 PM 28.0 °F 19.3 °F 19.0 °F 69% 29.86 in 10.0 mi NW 9.2 mph - N/A   Overcast
4:46 PM 28.4 °F 20.4 °F 19.4 °F 69% 29.83 in 10.0 mi NW 8.1 mph - N/A   Overcast
4:54 PM 28.0 °F 20.8 °F 19.0 °F 69% 29.88 in 10.0 mi NW 6.9 mph - N/A   Overcast
5:54 PM 27.0 °F 21.6 °F 19.0 °F 72% 29.90 in 10.0 mi WNW 4.6 mph - N/A   Overcast
6:54 PM 25.0 °F 19.3 °F 19.0 °F 78% 29.91 in 10.0 mi WSW 4.6 mph - N/A   Mostly Cloudy
7:54 PM 25.0 °F 19.3 °F 19.0 °F 78% 29.92 in 10.0 mi WSW 4.6 mph - N/A   Overcast
8:54 PM 26.1 °F 19.4 °F 19.9 °F 78% 29.94 in 10.0 mi West 5.8 mph - N/A   Overcast
9:54 PM 26.1 °F 17.6 °F 19.9 °F 78% 29.94 in 10.0 mi West 8.1 mph - N/A   Overcast
10:27 PM 24.8 °F 17.9 °F 19.4 °F 80% 29.90 in 10.0 mi West 5.8 mph - N/A   Overcast
10:54 PM 25.0 °F 16.3 °F 19.9 °F 81% 29.94 in 10.0 mi West 8.1 mph - N/A   Overcast
11:54 PM 25.0 °F 18.1 °F 19.0 °F 78% 29.96 in 10.0 mi West 5.8 mph - N/A   Overcast